Location: Nelson
(41.2830°S, 173.2830°E)
Time: 06:18:42
(UTC+12:00)

PSLV R/B - Pass Details

Date: 14 May 2021
Orbit: 503 x 576 km, 97.8° (Epoch: 17 June)

Event Time Altitude Azimuth Distance (km) Brightness Sun altitude
Exits shadow 18:53:48 - 173° (S) 2,475 7.0 -17.8°
Reaches altitude 10° 18:55:27 10° 176° (S) 1,786 6.3 -18.1°
Maximum altitude 18:59:13 56° 254° (WSW) 626 4.3 -18.8°
Drops below altitude 10° 19:02:52 10° 332° (NNW) 1,733 6.8 -19.5°
Sets 19:04:57 0° 336° (NNW) 2,605 7.7 -19.9°
